Wind_Speed
20 42 37 35 31 27 26 23 21 20 18 17 16 14 13 12 11 11 10 10 10 4 8 10 9 8 8 6 4 6 3 1 4 2 3 4 3 5 1 4 5 5 3 5 2 4 8 3 3 5 12 22 27 25
17 27 39 36 34 31 28 26 23 21 20 19 18 15 13 11 11 11 10 10 9 7 4 13 12 10 10 8 8 11 4 5 9 4 1 2 3 2 3 5 2 3 8 4 8 6 6 7 14 30 20 26 19 13
17 16 30 36 37 34 32 29 26 24 22 21 20 18 16 13 11 11 10 9 9 8 10 15 15 14 12 10 10 7 9 10 8 10 8 3 4 4 4 5 3 4 13 3 5 10 22 22 36 38 30 13 8 4
9 18 20 32 34 34 33 31 29 27 25 22 21 19 18 15 13 12 11 10 10 3 2 8 11 12 12 13 15 16 20 16 16 13 9 3 3 13 4 5 6 10 3 5 14 19 28 31 21 19 12 5 5 6
3 13 12 23 33 31 31 32 31 29 28 24 23 21 19 18 15 13 13 12 11 9 2 7 10 12 11 13 17 18 20 20 19 9 5 3 5 3 5 2 2 12 10 5 8 25 22 22 12 6 4 8 8 12
4 5 13 5 20 34 33 31 30 31 29 26 26 24 20 19 16 14 9 18 16 14 4 2 9 16 17 21 23 22 22 23 22 9 6 8 15 9 3 3 13 22 23 24 28 29 15 16 2 2 1 9 12 17
6 6 7 9 6 8 21 28 33 28 26 30 27 24 25 23 21 18 6 4 11 18 4 5 6 6 16 18 21 17 20 18 13 7 8 14 17 9 2 5 7 15 26 22 19 20 14 6 2 5 10 14 20 23
6 6 7 9 10 10 4 10 18 24 24 22 22 21 20 20 20 21 20 9 13 14 8 3 3 4 3 2 3 2 3 5 8 5 4 4 3 8 4 14 19 15 15 21 17 11 9 4 3 9 13 18 21 21
9 7 7 7 8 10 14 14 10 11 16 20 18 18 21 21 14 16 18 18 14 8 4 4 3 3 3 2 2 0 1 1 2 3 3 2 1 4 7 12 19 27 23 22 8 4 6 2 6 13 19 24 24 25
9 6 6 6 7 7 9 12 15 18 16 18 21 10 6 8 10 12 8 4 9 6 7 4 5 2 6 7 3 1 1 1 2 3 3 1 3 13 18 19 19 14 3 2 9 3 4 11 21 26 28 30 26 26
13 10 8 6 6 10 11 12 16 19 22 19 7 5 12 16 7 5 4 4 4 3 3 3 11 3 5 3 2 5 1 1 2 3 2 2 3 7 16 9 8 7 7 11 9 10 17 23 28 26 27 27 25 25
15 13 10 10 11 12 15 19 23 21 13 11 10 17 14 4 3 2 1 0 2 3 4 4 4 4 4 4 3 3 2 1 4 1 1 2 3 12 10 11 11 10 10 12 16 18 21 22 20 21 25 27 25 25
17 17 14 12 11 12 13 15 16 13 16 18 5 5 5 3 3 5 6 3 2 4 6 6 2 4 4 3 3 2 2 3 3 0 3 4 5 12 14 14 14 13 12 15 20 23 23 23 23 26 28 29 29 28
20 20 18 14 11 14 15 14 15 17 8 3 4 4 3 3 3 3 3 3 5 3 11 10 4 2 2 2 2 3 2 1 2 2 5 2 7 10 11 10 12 15 19 24 26 25 26 26 27 29 29 30 28 27
22 23 21 17 14 14 14 14 13 10 2 2 4 3 3 3 3 4 4 6 4 10 12 7 5 2 1 3 1 2 2 3 4 4 3 2 7 7 8 11 18 22 24 24 26 28 30 31 31 31 30 28 29 30
25 22 20 20 17 14 14 12 11 5 1 1 2 4 4 6 3 6 6 6 9 11 7 3 3 3 3 3 3 5 6 6 4 4 1 7 6 5 20 22 24 25 24 27 28 30 31 31 30 29 30 28 28 23
27 19 23 21 17 13 13 11 6 3 2 1 1 4 9 2 7 8 9 8 11 11 2 3 3 8 3 3 2 4 5 3 5 11 8 6 11 21 25 25 23 22 28 28 29 31 32 32 31 30 29 32 27 22
26 19 22 22 21 17 13 8 5 3 1 3 3 6 9 3 7 7 13 11 11 7 5 2 1 2 5 5 3 4 8 4 14 14 18 27 27 23 21 21 24 27 27 28 30 31 34 31 30 31 33 32 26 22
21 21 19 18 21 13 4 4 3 4 3 3 4 5 6 5 7 4 7 11 13 7 3 2 1 3 4 7 6 13 13 16 19 27 32 27 20 19 21 25 26 26 27 30 30 32 31 27 24 26 27 25 24 21
18 22 24 23 17 5 4 4 5 3 5 4 5 7 5 3 4 6 8 12 13 10 8 5 7 8 11 19 21 25 28 28 29 29 28 24 22 24 26 25 24 25 28 31 31 29 29 29 30 26 27 25 24 22
27 26 23 21 13 4 3 5 4 4 4 3 2 5 2 5 8 10 10 13 11 7 6 14 25 31 33 34 34 33 32 26 23 21 24 31 29 27 24 22 23 25 30 32 28 25 24 27 29 30 26 23 22 20
25 24 23 13 3 4 3 4 3 5 3 2 2 4 3 3 5 7 7 8 7 15 23 30 31 31 33 33 27 24 24 24 24 25 25 23 25 24 24 23 26 29 31 29 25 22 26 27 26 25 23 22 16 11
27 20 9 3 3 3 3 8 2 3 2 2 2 1 3 3 3 5 4 7 9 22 26 28 28 27 28 29 30 31 28 28 27 23 18 18 17 18 23 24 26 29 31 31 25 22 24 24 24 25 20 16 12 9
18 7 4 5 2 3 5 4 4 3 3 2 2 2 3 5 5 5 3 5 21 24 24 27 29 30 28 27 24 20 16 17 17 16 13 13 17 20 22 27 29 29 26 28 24 21 20 24 23 21 17 17 11 12
5 3 3 3 3 4 4 0 2 2 3 2 2 3 5 5 2 2 4 13 25 23 17 14 15 14 16 16 16 15 14 15 15 13 14 19 22 26 28 31 31 27 19 18 20 20 22 24 22 20 18 16 15 15
3 5 7 9 6 5 5 4 4 5 3 3 6 4 4 3 2 5 4 11 16 20 18 15 10 8 8 10 16 18 17 15 17 22 24 22 23 25 30 32 31 27 20 17 19 22 24 23 22 21 21 16 15 16
3 4 7 8 7 5 3 3 4 3 4 5 3 2 3 3 6 6 11 12 11 15 10 6 10 15 20 26 28 29 26 26 26 27 27 26 26 28 27 26 25 25 24 25 28 29 29 27 24 23 22 21 19 18
6 9 7 13 8 10 5 3 4 6 4 7 5 4 7 8 6 12 20 23 26 24 23 28 31 34 37 31 27 27 25 24 23 24 25 26 25 22 19 17 18 21 26 23 22 22 20 20 22 23 24 24 25 23
5 5 11 7 6 6 10 10 9 10 14 14 7 4 10 24 29 31 32 30 29 32 34 36 37 33 32 29 26 22 21 21 22 22 21 21 15 13 15 19 19 18 16 16 17 16 15 17 20 22 24 25 26 27
6 14 7 6 5 6 13 16 19 22 22 24 25 29 31 33 33 33 36 35 32 31 31 32 31 28 23 20 19 17 18 19 16 15 16 16 15 15 17 16 14 13 13 14 14 13 14 16 16 15 15 14 13 12
4 10 6 7 8 19 25 26 27 28 29 29 29 31 34 34 30 26 26 25 24 24 23 21 19 19 17 17 15 12 10 11 13 13 12 15 13 11 11 12 12 13 13 14 15 16 16 15 15 14 14 13 12 9
6 9 7 3 11 21 21 22 22 23 24 25 28 29 31 23 12 10 14 14 11 11 10 9 9 9 8 8 9 10 11 10 10 11 10 8 9 10 11 12 13 14 15 15 15 15 16 16 16 16 15 14 13 11
8 11 13 8 4 4 6 8 7 8 15 22 27 25 21 11 4 1 5 9 9 10 10 9 7 6 4 2 5 5 5 5 6 6 6 7 9 10 12 13 15 16 17 17 17 17 17 17 16 15 14 12 9 9
Wind_Direction
213 207 208 208 206 206 206 207 206 204 203 202 202 202 200 195 195 202 206 205 207 197 191 202 197 167 161 167 135 159 83 236 73 104 134 212 170 227 217 235 203 183 207 223 144 218 277 165 131 133 258 289 296 303
236 202 207 208 205 206 207 207 207 208 207 205 201 201 204 205 202 201 208 209 209 208 217 217 224 221 222 216 184 184 212 167 197 103 218 114 213 167 201 258 173 244 209 202 191 219 250 202 283 300 303 308 310 302
218 211 202 207 208 208 209 211 210 210 212 212 210 210 212 215 215 214 218 217 221 243 257 245 242 240 243 246 225 213 234 226 222 233 184 194 215 142 219 231 224 290 272 245 330 262 272 291 298 302 303 309 320 356
217 209 212 206 208 210 211 213 214 215 217 218 215 214 220 223 223 224 223 219 219 229 242 257 246 232 238 245 250 253 249 249 253 248 218 180 188 199 202 227 199 236 228 244 258 280 281 283 286 306 294 262 294 328
263 188 209 205 207 205 210 213 217 217 219 219 221 222 222 225 230 237 244 242 227 217 269 285 277 253 273 250 248 246 243 249 252 237 197 219 218 195 214 175 210 216 249 244 265 276 280 298 328 338 2 16 19 347
257 188 201 162 192 206 206 220 216 216 217 216 220 221 220 225 231 242 256 253 245 248 262 295 264 263 254 243 240 237 247 256 249 247 237 226 233 217 238 229 241 264 256 260 272 288 298 317 258 148 70 16 343 325
235 204 191 193 190 178 191 200 210 209 215 219 219 218 221 226 227 212 206 202 208 222 209 270 263 242 248 254 249 256 259 248 235 234 219 245 244 219 204 247 248 272 291 299 306 297 284 235 256 31 357 330 314 308
209 195 179 181 192 199 199 196 189 195 200 207 212 217 217 217 221 227 225 209 190 194 194 228 264 276 240 194 180 205 224 213 214 232 224 231 175 204 250 261 288 299 316 317 315 285 259 202 88 352 325 322 323 317
190 182 164 154 163 182 194 202 193 208 200 202 197 198 198 208 205 211 226 220 196 248 241 206 165 223 213 167 105 314 301 322 300 273 257 267 195 222 244 277 303 310 310 307 259 176 129 55 343 344 347 341 328 320
187 164 150 157 166 170 160 173 183 186 181 176 178 174 171 166 152 155 167 173 200 220 231 209 193 194 180 188 146 79 339 304 321 253 295 266 270 278 291 315 312 316 332 207 156 120 21 11 351 340 333 326 320 318
186 175 156 149 149 155 145 138 151 151 151 156 157 117 133 137 133 158 170 169 194 247 223 213 202 139 174 130 141 213 182 127 250 269 210 297 282 328 359 19 38 44 91 86 48 7 336 329 330 328 328 326 320 315
178 174 161 145 139 142 149 142 149 154 159 163 160 131 132 146 107 101 191 112 192 230 200 184 191 171 133 149 134 179 170 189 250 291 260 280 259 356 24 41 47 40 13 349 336 327 320 320 316 316 325 322 316 314
180 174 165 151 142 147 147 150 162 155 143 132 124 126 140 133 168 194 196 197 217 196 177 175 137 138 129 134 109 120 188 232 298 10 239 223 12 35 22 6 352 344 332 326 327 324 321 315 316 316 319 323 315 310
181 177 172 164 152 150 147 149 153 154 147 131 145 133 187 180 220 174 171 186 220 194 169 166 116 111 100 90 134 179 242 70 237 224 232 250 37 6 2 356 342 334 323 320 320 318 317 318 316 314 316 319 314 311
179 177 175 172 167 160 166 171 168 164 118 137 143 184 178 148 137 151 164 157 152 169 157 122 98 119 81 98 150 95 38 250 229 231 226 104 344 331 341 341 331 327 323 324 324 321 319 319 317 314 313 314 315 315
170 169 182 181 178 175 174 176 190 172 54 116 128 89 134 156 152 176 188 186 171 166 147 115 118 67 252 137 78 207 151 221 244 201 61 322 314 321 333 332 328 324 321 321 321 320 319 319 319 315 313 315 319 313
167 171 180 181 179 175 171 177 186 176 193 146 113 175 176 163 195 197 190 189 184 165 166 136 120 217 102 56 259 183 205 222 146 335 345 341 319 326 327 321 321 317 322 318 322 321 320 318 317 316 313 318 319 307
176 179 166 169 176 171 175 173 161 164 152 188 183 188 191 179 158 191 198 195 190 200 165 211 156 133 194 186 249 236 236 268 317 323 324 323 323 319 317 317 321 320 318 320 322 320 321 318 317 317 316 317 312 304
176 166 172 178 176 155 119 134 147 183 196 172 196 194 205 222 221 195 184 202 210 191 178 205 136 206 230 221 254 291 303 311 310 309 310 313 317 314 315 318 317 317 318 319 320 321 321 317 321 326 326 321 314 310
161 162 162 162 160 128 118 127 165 167 183 190 205 209 206 194 202 225 215 208 219 231 222 213 217 236 257 273 281 288 296 302 306 308 307 309 314 314 316 317 316 318 318 320 321 323 328 328 334 333 325 322 315 304
151 162 171 172 158 113 142 159 159 166 157 175 198 209 237 241 246 237 233 228 219 224 238 250 260 264 268 274 280 288 293 299 299 302 303 305 310 313 314 317 315 315 321 318 318 319 324 326 327 326 321 317 314 306
155 166 162 152 113 138 126 149 134 148 147 134 167 203 223 223 224 227 202 182 232 239 239 254 266 275 279 285 297 299 300 299 296 297 299 300 303 308 311 313 312 315 320 319 320 315 319 322 322 324 322 314 304 293
156 155 139 115 132 121 109 155 143 159 124 200 196 233 239 227 230 204 225 222 236 259 268 269 277 285 286 294 293 293 293 290 291 295 294 293 295 302 306 307 307 312 318 316 313 310 311 317 314 321 326 315 290 246
156 130 129 160 105 112 131 163 191 206 200 193 128 287 255 219 201 217 238 229 264 277 278 285 288 289 290 291 295 300 299 298 295 287 278 290 305 312 308 306 306 309 311 314 308 302 303 315 312 311 301 309 289 265
137 159 162 131 148 141 167 302 179 173 235 192 114 288 244 203 165 241 224 269 283 297 305 311 306 298 297 302 303 302 295 289 273 266 280 300 310 315 313 313 309 311 327 318 324 315 302 309 305 304 293 287 283 281
128 170 176 179 170 167 183 160 202 211 161 194 227 237 204 136 117 244 231 280 299 312 312 308 291 289 309 329 325 322 321 307 290 289 297 298 301 307 310 310 307 311 324 318 309 307 307 307 300 301 298 289 282 278
186 188 190 186 193 184 172 196 172 155 168 204 233 177 118 194 237 245 271 282 307 315 297 301 307 299 298 300 303 305 301 293 285 287 290 291 295 301 304 295 293 300 308 306 304 301 298 297 299 293 291 287 281 271
223 179 176 189 195 203 169 171 168 202 220 205 168 180 195 201 228 275 289 294 298 299 293 296 300 304 305 300 299 299 299 294 282 270 275 287 295 301 302 284 284 290 297 305 309 315 309 299 297 297 292 285 280 277
204 202 194 190 181 194 213 204 218 220 231 220 192 233 251 268 284 292 296 299 298 295 293 294 296 297 295 295 296 300 300 294 293 293 292 300 308 303 295 296 300 305 311 319 324 327 320 312 308 304 299 291 285 279
222 190 197 196 190 213 231 236 255 269 272 271 274 279 280 283 290 292 291 291 290 289 290 291 291 292 297 296 293 290 286 287 285 289 293 292 295 302 306 310 315 319 319 321 326 331 332 331 330 331 338 337 326 309
209 192 215 223 229 254 265 276 280 281 282 282 282 280 279 285 286 284 280 284 285 283 284 286 286 284 280 279 280 274 261 270 282 285 284 293 302 308 318 320 319 319 321 321 322 325 328 332 336 337 339 339 339 336
209 208 207 225 265 287 290 284 284 284 287 284 282 282 278 266 256 259 287 292 289 284 289 291 284 274 279 288 295 300 297 290 284 289 292 290 298 309 313 314 315 315 314 313 314 313 313 314 316 318 320 321 316 313
245 252 259 275 268 256 283 293 273 274 270 272 276 278 269 255 136 3 333 346 345 341 335 332 327 311 312 320 313 310 309 316 317 310 308 311 314 316 317 317 316 314 313 310 308 306 305 308 311 313 316 316 305 284
Height
1472 1477 1484 1489 1495 1500 1505 1509 1513 1516 1519 1522 1525 1529 1531 1533 1534 1537 1538 1539 1542 1543 1544 1545 1546 1547 1549 1550 1556 1557 1561 1558 1564 1572 1578 1577 1585 1572 1569 1562 1562 1562 1567 1570 1566 1565 1553 1522 1524 1531 1524 1516 1516 1514
1470 1472 1478 1484 1490 1496 1501 1506 1510 1514 1517 1520 1524 1527 1530 1532 1533 1535 1537 1539 1540 1543 1544 1544 1544 1545 1546 1547 1550 1552 1553 1552 1553 1563 1568 1571 1570 1568 1568 1557 1550 1556 1547 1548 1544 1537 1521 1521 1519 1519 1517 1514 1510 1509
1467 1468 1472 1479 1485 1491 1497 1502 1507 1511 1515 1518 1521 1524 1527 1529 1532 1534 1536 1538 1540 1541 1542 1541 1542 1543 1543 1544 1546 1549 1548 1549 1550 1550 1552 1556 1559 1557 1554 1550 1548 1543 1536 1538 1534 1524 1516 1517 1514 1514 1511 1508 1507 1504
1465 1467 1469 1473 1480 1486 1492 1497 1502 1507 1511 1515 1518 1521 1525 1528 1530 1532 1534 1537 1539 1541 1539 1537 1538 1538 1538 1539 1541 1542 1543 1545 1546 1546 1546 1549 1550 1545 1542 1541 1540 1537 1533 1529 1523 1519 1514 1513 1510 1509 1507 1501 1502 1504
1465 1464 1467 1469 1474 1481 1486 1492 1497 1502 1507 1512 1516 1519 1522 1524 1528 1530 1533 1535 1536 1541 1539 1536 1534 1534 1534 1534 1536 1537 1538 1540 1540 1541 1541 1542 1539 1540 1534 1533 1533 1526 1523 1524 1514 1513 1510 1508 1506 1503 1505 1504 1503 1502
1466 1465 1467 1467 1469 1475 1480 1486 1491 1496 1502 1507 1511 1515 1518 1521 1524 1528 1531 1532 1533 1535 1539 1536 1531 1528 1529 1529 1531 1532 1532 1533 1534 1533 1531 1529 1529 1531 1528 1523 1514 1513 1513 1513 1509 1508 1507 1506 1504 1502 1502 1503 1502 1499
1468 1467 1466 1467 1469 1472 1476 1479 1485 1491 1497 1502 1507 1510 1514 1517 1520 1524 1527 1527 1528 1531 1535 1533 1525 1522 1521 1521 1523 1524 1525 1526 1527 1527 1524 1523 1522 1526 1521 1514 1506 1509 1509 1507 1504 1503 1501 1501 1501 1501 1501 1500 1499 1496
1468 1469 1469 1468 1470 1472 1474 1477 1480 1485 1491 1497 1502 1506 1510 1512 1515 1518 1521 1525 1525 1529 1529 1527 1521 1522 1520 1518 1520 1521 1522 1522 1521 1519 1518 1516 1517 1517 1512 1500 1502 1503 1502 1501 1499 1497 1497 1498 1499 1500 1500 1496 1493 1490
1468 1470 1469 1469 1470 1472 1474 1476 1478 1483 1488 1493 1498 1502 1505 1508 1509 1511 1518 1519 1521 1528 1521 1518 1519 1520 1518 1518 1520 1523 1521 1520 1519 1518 1517 1516 1512 1509 1502 1500 1499 1498 1498 1496 1496 1497 1498 1500 1500 1499 1497 1494 1490 1485
1468 1469 1470 1470 1471 1473 1474 1475 1477 1483 1488 1492 1497 1501 1502 1504 1507 1510 1514 1514 1518 1517 1514 1513 1515 1516 1519 1520 1520 1524 1522 1522 1519 1518 1516 1513 1507 1504 1503 1501 1497 1494 1493 1494 1495 1498 1499 1498 1497 1493 1491 1487 1484 1480
1469 1471 1471 1472 1474 1474 1476 1475 1477 1482 1487 1492 1494 1498 1502 1505 1508 1510 1511 1513 1515 1513 1510 1511 1512 1513 1515 1517 1519 1522 1520 1521 1521 1520 1516 1515 1512 1505 1500 1498 1496 1496 1497 1498 1499 1499 1498 1497 1494 1490 1486 1483 1479 1474
1467 1471 1473 1474 1474 1475 1477 1478 1480 1483 1486 1491 1494 1498 1503 1506 1508 1510 1511 1513 1512 1511 1510 1510 1511 1511 1513 1515 1517 1520 1521 1522 1521 1518 1517 1515 1508 1505 1503 1502 1501 1501 1501 1500 1499 1497 1494 1491 1489 1486 1482 1477 1472 1468
1466 1470 1473 1475 1476 1477 1479 1480 1483 1485 1487 1491 1495 1498 1500 1507 1507 1507 1506 1509 1510 1507 1506 1509 1511 1511 1512 1515 1517 1519 1520 1521 1519 1519 1516 1511 1506 1505 1504 1504 1503 1502 1500 1498 1496 1493 1489 1487 1483 1480 1476 1471 1466 1462
1466 1469 1473 1475 1476 1479 1482 1483 1484 1486 1489 1491 1493 1499 1498 1502 1501 1500 1504 1506 1507 1506 1505 1509 1511 1512 1513 1515 1517 1518 1519 1520 1516 1516 1515 1506 1504 1504 1504 1503 1502 1500 1498 1494 1491 1487 1484 1480 1475 1472 1467 1463 1458 1454
1464 1469 1472 1474 1477 1479 1483 1484 1485 1486 1489 1491 1491 1497 1497 1497 1497 1499 1501 1503 1505 1506 1507 1508 1511 1512 1515 1518 1517 1520 1522 1519 1511 1514 1506 1504 1505 1503 1502 1500 1498 1496 1492 1487 1484 1481 1476 1472 1467 1462 1458 1455 1452 1447
1461 1465 1469 1473 1477 1480 1482 1487 1488 1489 1490 1491 1492 1495 1495 1497 1498 1500 1502 1504 1505 1506 1507 1508 1512 1517 1516 1516 1521 1519 1525 1519 1508 1501 1500 1501 1501 1501 1498 1496 1492 1489 1486 1483 1478 1474 1469 1464 1460 1455 1450 1447 1444 1440
1457 1460 1466 1472 1476 1479 1483 1488 1488 1489 1490 1490 1492 1493 1494 1495 1496 1500 1501 1504 1505 1505 1507 1508 1514 1512 1512 1521 1520 1511 1512 1502 1498 1498 1496 1497 1497 1495 1492 1489 1486 1483 1480 1476 1472 1467 1462 1457 1452 1448 1443 1439 1436 1434
1457 1461 1467 1471 1475 1480 1485 1489 1489 1489 1490 1491 1492 1492 1494 1494 1495 1498 1499 1502 1504 1503 1504 1506 1506 1511 1515 1514 1509 1498 1497 1497 1495 1493 1491 1491 1490 1489 1486 1483 1480 1477 1473 1469 1465 1460 1455 1450 1445 1440 1436 1431 1428 1426
1457 1462 1467 1472 1477 1480 1483 1485 1487 1489 1489 1489 1490 1491 1493 1494 1496 1497 1498 1498 1500 1503 1504 1503 1505 1505 1498 1491 1491 1492 1493 1492 1490 1487 1485 1484 1484 1482 1479 1477 1474 1470 1466 1462 1458 1453 1448 1444 1440 1435 1430 1427 1423 1420
1460 1464 1469 1474 1478 1480 1482 1485 1486 1487 1489 1490 1490 1492 1493 1493 1494 1493 1494 1497 1501 1502 1501 1496 1491 1488 1488 1488 1489 1489 1488 1487 1485 1481 1477 1476 1476 1475 1472 1469 1466 1463 1458 1454 1450 1447 1441 1437 1433 1430 1426 1422 1418 1415
1463 1467 1471 1474 1478 1480 1482 1483 1486 1487 1487 1488 1488 1489 1489 1489 1490 1492 1494 1495 1497 1493 1490 1486 1484 1484 1484 1483 1483 1484 1481 1481 1478 1476 1473 1468 1467 1466 1464 1462 1459 1456 1453 1448 1444 1440 1437 1434 1430 1426 1421 1418 1414 1410
1462 1467 1471 1475 1478 1480 1482 1483 1484 1485 1487 1487 1488 1489 1490 1490 1489 1488 1489 1490 1487 1484 1484 1479 1477 1478 1477 1477 1476 1475 1474 1472 1470 1469 1467 1464 1461 1459 1457 1456 1453 1449 1446 1442 1438 1435 1432 1429 1425 1421 1417 1413 1411 1408
1464 1470 1473 1475 1477 1479 1483 1483 1484 1485 1486 1487 1488 1488 1487 1486 1484 1485 1485 1482 1478 1475 1473 1472 1472 1472 1470 1468 1467 1466 1465 1463 1461 1460 1459 1458 1456 1455 1452 1450 1447 1443 1439 1435 1433 1430 1427 1425 1421 1417 1413 1409 1407 1406
1468 1471 1474 1475 1477 1480 1482 1483 1485 1485 1485 1486 1487 1489 1485 1482 1482 1482 1480 1474 1470 1468 1468 1466 1466 1464 1463 1461 1459 1457 1456 1455 1454 1453 1453 1452 1450 1448 1446 1443 1440 1437 1434 1429 1426 1424 1422 1419 1416 1413 1411 1409 1407 1405
1470 1474 1474 1476 1478 1480 1482 1482 1483 1484 1484 1484 1487 1485 1479 1479 1481 1481 1474 1465 1463 1462 1461 1460 1459 1458 1456 1455 1454 1452 1451 1449 1448 1448 1448 1447 1444 1441 1438 1436 1432 1429 1428 1424 1421 1419 1416 1414 1411 1408 1406 1405 1403 1402
1468 1469 1472 1473 1475 1477 1477 1482 1481 1481 1482 1484 1481 1476 1475 1476 1481 1475 1463 1459 1458 1457 1456 1455 1454 1454 1453 1452 1451 1450 1449 1447 1445 1443 1441 1439 1437 1435 1431 1428 1423 1421 1422 1419 1417 1413 1410 1408 1406 1404 1401 1400 1399 1397
1467 1466 1468 1469 1470 1471 1473 1473 1474 1475 1480 1479 1473 1473 1474 1479 1474 1458 1455 1455 1455 1454 1453 1452 1451 1450 1449 1447 1445 1443 1442 1440 1438 1435 1433 1431 1430 1428 1425 1422 1418 1417 1415 1413 1410 1407 1404 1401 1399 1398 1396 1394 1393 1392
1460 1461 1463 1464 1466 1466 1467 1469 1470 1470 1466 1465 1466 1469 1466 1463 1456 1451 1451 1451 1451 1450 1448 1447 1445 1443 1441 1438 1435 1433 1431 1430 1428 1426 1425 1424 1422 1420 1418 1416 1415 1413 1410 1406 1403 1400 1397 1395 1393 1391 1389 1387 1386 1385
1457 1458 1460 1460 1462 1462 1461 1461 1458 1456 1455 1454 1454 1454 1449 1447 1447 1446 1445 1444 1443 1441 1439 1437 1435 1434 1431 1428 1426 1425 1424 1423 1421 1419 1417 1415 1416 1415 1413 1411 1409 1406 1404 1401 1399 1396 1393 1391 1388 1385 1382 1380 1378 1376
1452 1454 1455 1455 1456 1455 1451 1451 1448 1449 1449 1448 1447 1444 1442 1440 1440 1439 1436 1434 1432 1430 1429 1427 1425 1423 1421 1421 1419 1419 1418 1416 1415 1415 1412 1411 1410 1409 1408 1405 1403 1402 1400 1398 1396 1394 1392 1389 1386 1382 1378 1375 1372 1370
1447 1448 1449 1448 1447 1445 1445 1444 1443 1442 1441 1440 1439 1436 1432 1431 1431 1428 1426 1424 1423 1421 1419 1418 1417 1416 1415 1414 1413 1412 1412 1411 1411 1410 1409 1407 1406 1405 1404 1402 1400 1399 1397 1395 1393 1391 1389 1387 1384 1381 1378 1376 1374 1373
1444 1444 1443 1444 1441 1441 1440 1437 1436 1434 1432 1430 1427 1425 1423 1422 1422 1421 1419 1418 1416 1416 1414 1413 1412 1411 1411 1410 1410 1409 1408 1408 1407 1406 1405 1404 1403 1402 1401 1399 1397 1396 1394 1392 1390 1388 1387 1385 1382 1380 1378 1376 1374 1373
1440 1439 1438 1438 1436 1435 1434 1434 1430 1426 1423 1420 1416 1414 1413 1414 1416 1420 1418 1416 1415 1413 1411 1410 1409 1408 1408 1408 1407 1407 1406 1405 1404 1403 1403 1402 1401 1399 1398 1396 1394 1392 1390 1388 1386 1385 1383 1381 1379 1377 1375 1374 1372 1371